Weather observations for the past three days for
Beaumont Municipal Airport
Imperial (Metric)
Date Time (cdt) Wind (mph) Vis. (mi.) Weather Sky Cond. Temperature (ºF) Relative Humidity Wind Chill (°F) Heat Index (°F) Pressure Precipitation (in)
Air Dwpt 6 hour altimeter (in) sea level (mb) 1 hr 3 hr 6 hr
Max. Min.
23 15:35 S 8 10.00 Mostly Cloudy SCT027 BKN035 BKN045 84.4 73.4 70% 91 30.02 0.0
23 15:15 S 9 G 18 10.00 Partly Cloudy SCT027 86 72.7 65% 93 30.02 0.0
23 14:55 SE 10 10.00 Partly Cloudy SCT027 86 72.5 64% 93 30.02 0.0
23 14:35 SE 12 10.00 Partly Cloudy SCT032 SCT039 86.9 72.9 63% 94 30.02 0.0
23 14:15 S 9 10.00 Mostly Cloudy SCT012 SCT021 BKN036 85.3 72.9 66% 92 30.03 0.0
23 13:55 E 6 10.00 Partly Cloudy SCT026 SCT032 SCT050 82.6 76.3 81% 91 30.04 0.0
23 13:35 Calm 10.00 Partly Cloudy SCT026 SCT050 82.4 75.7 80% 90 30.05 0.0
23 13:15 E 3 10.00 Fair CLR 80.2 75.7 86% 86 30.04 0.0
23 12:55 SE 6 10.00 Partly Cloudy SCT036 SCT047 SCT075 79 74.8 82.4 74.5 87% 83 30.05 0.0
23 12:35 Calm 4.00 Rain SCT027 BKN047 OVC060 75.6 71.4 87% 76 30.05 0.0
23 12:15 SW 5 1.00 Heavy Rain BKN011 BKN024 OVC032 75.2 72.5 91% 74 30.06 0.0
23 11:55 E 5 7.00 Rain SCT012 BKN023 OVC047 77.9 75.2 91% 80 30.06 0.0
23 11:35 E 10 10.00 Overcast SCT014 BKN023 OVC090 80.8 73.9 80% 86 30.06 0.0
23 11:15 E 6 10.00 Mostly Cloudy SCT050 SCT080 BKN090 81.9 73.2 75% 87 30.06 0.0
23 10:55 E 5 10.00 Mostly Cloudy SCT032 SCT060 BKN100 81.1 72.7 76% 86 30.06 0.0
23 10:35 Calm 10.00 Light Rain SCT017 SCT035 BKN060 80.4 74.1 81% 85 30.06 0.0
23 10:15 S 3 10.00 Mostly Cloudy BKN015 BKN022 BKN032 79.9 74.1 83% 84 30.06 0.0
23 09:55 Calm 10.00 Mostly Cloudy SCT013 BKN021 BKN031 79.5 73.6 82% 83 30.06 0.0
23 09:35 Calm 10.00 Partly Cloudy SCT110 79 73.4 83% 82 30.06 0.0
23 09:15 E 5 10.00 Partly Cloudy SCT110 78.1 73.4 86% 81 30.05 0.0
23 08:55 E 3 10.00 Partly Cloudy SCT110 77.4 73.4 88% 79 30.05 0.0
23 08:35 SE 3 10.00 Partly Cloudy SCT110 77.2 73.2 88% 79 30.05 0.0
23 08:15 SE 3 10.00 Mostly Cloudy SCT007 SCT032 BKN110 77.7 75.9 94% 80 30.05 0.0
23 07:55 Calm 10.00 Mostly Cloudy SCT009 SCT034 BKN042 76.1 75.2 97% 75 30.05 0.0
23 07:35 Calm 10.00 Mostly Cloudy SCT006 BKN021 BKN075 75.6 74.5 96% 74 30.04 0.0
23 07:15 Calm 10.00 Mostly Cloudy BKN021 BKN027 75.6 74.5 96% 74 30.03 0.0
23 06:55 NE 3 10.00 Partly Cloudy SCT021 SCT110 74.8 73.8 74.8 73.8 96% 30.01 0.0
23 06:35 Calm 10.00 Fair CLR 74.3 73.4 97% 30.02 0.0
23 06:15 Calm 10.00 Fair CLR 74.7 73.8 97% 30.01 0.0
23 05:55 E 3 10.00 Fair CLR 74.5 73.4 96% 30.01 0.0
23 05:35 NE 3 10.00 Thunderstorm in Vicinity CLR 73.9 72.9 96% 30.01 0.0
23 05:15 Calm 10.00 Fair CLR 73.9 72.9 96% 30.01 0.0
23 04:55 Calm 10.00 Fair CLR 74.1 73 96% 30 0.0
23 04:35 Calm 10.00 Fair CLR 73.9 73 97% 30 0.0
23 04:15 Calm 10.00 Fair CLR 74.3 73 96% 30 0.0
23 03:55 Calm 10.00 Fair CLR 74.3 73.4 97% 30 0.0
23 03:35 Calm 10.00 Fair CLR 73.9 72.9 96% 30 0.0
23 03:15 Calm 10.00 Fair CLR 74.1 73 96% 30 0.0
23 02:55 Calm 10.00 Fair CLR 74.3 73.2 96% 30 0.0
23 02:35 Calm 10.00 Fair CLR 74.5 73.4 96% 30 0.0
23 02:15 Calm 10.00 Fair CLR 74.3 73.4 97% 30 0.0
23 01:55 Calm 10.00 Fair CLR 74.3 73.4 97% 30 0.0
23 01:35 Calm 10.00 Fair CLR 74.3 72.9 95% 30 0.0
23 01:15 N 3 10.00 Fair CLR 74.5 72.9 95% 30.01 0.0
23 00:55 SE 3 10.00 Fair CLR 74.7 72.7 83.3 74.5 94% 30 0.0
23 00:35 Calm 10.00 Fair CLR 74.5 72.7 94% 30 0.0
23 00:15 Calm 10.00 Fair CLR 74.5 72.7 94% 30 0.0
22 23:55 Calm 10.00 Fair CLR 75.2 72.5 91% 74 30 0.0
22 23:35 E 3 10.00 Fair CLR 74.8 72.9 94% 30 0.0
22 23:15 Calm 10.00 Fair CLR 75.2 72.7 92% 74 30.01 0.0
22 22:55 SE 3 10.00 Fair CLR 75 72.5 92% 74 30.01 0.0
22 22:35 SE 3 10.00 Fair CLR 74.8 72.3 92% 30 0.0
22 22:15 Calm 10.00 Fair CLR 75.2 71.8 89% 75 30 0.0
22 21:55 Calm 10.00 Fair CLR 75.4 72 89% 75 30 0.0
22 21:35 Calm 10.00 Fair CLR 75.6 72.5 90% 75 30 0.0
22 21:15 Calm 10.00 Partly Cloudy SCT055 SCT075 SCT085 75.6 72.7 91% 75 30 0.0
22 20:55 NW 5 10.00 Light Rain SCT048 SCT055 OVC090 75.7 72.7 90% 75 30 0.0
22 20:35 N 6 10.00 Light Rain SCT011 BKN090 OVC110 76.6 73.8 91% 77 29.99 0.0
22 20:15 NW 10 G 16 10.00 Light Rain SCT011 SCT060 BKN090 78.1 75.2 91% 81 29.99 0.0
22 19:55 NW 6 10.00 Light Rain CLR 80.2 72.9 78% 84 29.97 0.0
22 19:35 W 7 10.00 Fair CLR 82.4 72 71% 87 29.97 0.0
22 19:15 W 8 10.00 Fair CLR 82.8 71.6 69% 88 29.97 0.0
22 18:55 W 7 10.00 Fair CLR 83.3 70.7 88.3 82.4 66% 88 29.97 0.0
22 18:35 SW 3 10.00 Fair CLR 83.5 71.1 66% 88 29.97 0.0
22 18:15 SW 5 10.00 Fair CLR 84.2 70 62% 89 29.96 0.0
22 17:55 SW 5 10.00 Partly Cloudy SCT030 SCT037 SCT075 86 72 63% 92 29.96 0.0
22 17:35 S 7 10.00 Mostly Cloudy SCT029 BKN036 BKN075 86 73 65% 93 29.97 0.0
22 17:15 S 3 10.00 Partly Cloudy SCT029 SCT034 SCT075 86 71.8 63% 92 29.98 0.0
22 16:55 SW 7 10.00 Partly Cloudy SCT075 86.5 72.1 62% 93 29.99 0.0
22 16:35 S 6 10.00 Fair CLR 85.6 71.4 63% 91 29.98 0.0
22 16:15 SW 8 10.00 Partly Cloudy SCT022 SCT030 86.9 73.2 64% 94 29.98 0.0
22 15:55 SW 9 10.00 Mostly Cloudy BKN022 BKN030 88.2 74.5 64% 97 29.99 0.0
22 15:35 S 7 10.00 Mostly Cloudy BKN020 85.1 73.8 69% 93 29.99 0.0
22 15:15 SW 10 10.00 Partly Cloudy SCT018 85.8 74.1 68% 94 29.98 0.0
22 14:55 S 12 G 16 10.00 Partly Cloudy SCT020 84.2 73.9 71% 91 29.98 0.0
22 14:35 S 10 10.00 Thunderstorm in Vicinity SCT020 SCT027 84.4 73.8 71% 91 29.98 0.0
22 14:15 S 12 10.00 Partly Cloudy SCT020 SCT025 83.7 74.1 73% 91 29.98 0.0
22 13:55 S 9 10.00 Partly Cloudy SCT018 83.3 73.8 73% 90 30 0.0
22 13:35 S 8 10.00 Thunderstorm CLR 83.1 74.3 75% 90 30.01 0.0
22 13:15 S 10 10.00 Thunderstorm in Vicinity CLR 82.4 73.6 75% 88 30 0.0
22 12:55 S 9 G 16 10.00 Partly Cloudy SCT020 SCT024 83.5 73.8 88.3 75.2 73% 90 30.01 0.0
22 12:35 S 12 10.00 Partly Cloudy SCT020 SCT025 85.5 74.5 70% 94 30.01 0.0
22 12:15 S 12 10.00 Thunderstorm in Vicinity SCT024 SCT032 87.4 74.7 66% 97 30.01 0.0
22 11:55 S 8 10.00 Partly Cloudy SCT024 87.8 75.2 66% 98 30.01 0.0
22 11:35 S 10 10.00 Partly Cloudy SCT022 SCT040 86.9 74.3 66% 96 30.01 0.0
22 11:15 S 10 10.00 Mostly Cloudy SCT022 BKN040 86.9 74.5 67% 96 30.02 0.0
22 10:55 S 8 10.00 Partly Cloudy SCT020 86.4 75.4 70% 96 30.03 0.0
22 10:35 S 7 10.00 Partly Cloudy SCT020 SCT027 SCT035 85.6 75.6 72% 95 30.03 0.0
22 10:15 SE 8 10.00 Mostly Cloudy SCT017 SCT025 BKN035 85.8 75.7 72% 95 30.02 0.0
22 09:55 S 7 10.00 Mostly Cloudy SCT021 BKN035 BKN044 84.7 75.9 75% 94 30.02 0.0
22 09:35 S 7 10.00 Mostly Cloudy BKN021 BKN033 84 76.6 79% 93 30.02 0.0
22 09:15 SW 3 10.00 Partly Cloudy SCT037 84 75 74% 92 30.01 0.0
22 08:55 S 3 10.00 Partly Cloudy SCT039 83.1 74.7 76% 90 30.01 0.0
22 08:35 Calm 10.00 Fair CLR 81.7 74.8 80% 88 30.01 0.0
22 08:15 Calm 10.00 Fair CLR 80.1 73.9 82% 85 30.01 0.0
22 07:55 Calm 10.00 Thunderstorm in Vicinity CLR 78.3 75.9 93% 81 30 0.0
22 07:35 Calm 10.00 Fair CLR 77.2 76.1 96% 78 30 0.0
22 07:15 Calm 7.00 Thunderstorm in Vicinity CLR 76.3 75.2 96% 76 29.99 0.0
22 06:55 Calm 2.00 Fog/Mist CLR 75.2 74.3 77 74.8 97% 73 30 0.0
22 06:35 Calm 7.00 Partly Cloudy SCT021 75.4 74.3 96% 74 29.99 0.0
22 06:15 Calm 7.00 Partly Cloudy SCT021 75.4 74.5 97% 74 29.98 0.0
22 05:55 Calm 7.00 Fair CLR 75.2 74.1 96% 73 29.99 0.0
22 05:35 Calm 10.00 Fair CLR 75.2 73.9 96% 73 29.98 0.0
22 05:15 Calm 7.00 Fair CLR 75.2 74.3 97% 73 29.97 0.0
22 04:55 Calm 7.00 Fair CLR 75.6 74.5 96% 74 29.97 0.0
22 04:35 Calm 10.00 Fair CLR 76.1 75.2 97% 75 29.97 0.0
22 04:15 Calm 10.00 Fair CLR 75.4 74.5 97% 74 29.97 0.0
22 03:55 Calm 7.00 Fair CLR 75 73.9 96% 73 29.97 0.0
22 03:35 Calm 1.50 Fog/Mist VV007 75.2 74.1 96% 73 29.97 0.0
22 03:15 Calm 7.00 Fair CLR 75.6 74.5 96% 74 29.98 0.0
22 02:55 Calm 10.00 Fair CLR 75.4 74.5 97% 74 29.98 0.0
22 02:35 Calm 10.00 Fair CLR 75.9 75 97% 75 29.98 0.0
22 02:15 Calm 10.00 Fair CLR 76.1 75.2 97% 75 29.99 0.0
22 01:55 Calm 10.00 Fair CLR 76.1 75.2 97% 75 29.99 0.0
22 01:35 Calm 10.00 Fair CLR 76.1 75.2 97% 75 29.99 0.0
22 01:15 Calm 10.00 Fair CLR 76.1 74.8 96% 76 30 0.0
22 00:55 Calm 10.00 Fair CLR 77 75.2 83.8 76.5 94% 78 29.99 0.0
22 00:35 Calm 10.00 Fair CLR 77.2 75.2 94% 78 29.99 0.0
22 00:15 Calm 10.00 Fair CLR 77 75.2 94% 78 29.99 0.0
21 23:55 Calm 10.00 Fair CLR 77 75 94% 78 29.99 0.0
21 23:35 Calm 10.00 Partly Cloudy SCT016 77.5 75.2 93% 79 30 0.0
21 23:15 S 3 10.00 Fair CLR 77.9 75.2 91% 80 29.99 0.0
21 22:55 S 3 10.00 Fair CLR 77.9 75.4 92% 80 29.99 0.0
21 22:35 S 5 10.00 Fair CLR 78.1 75.4 91% 81 29.99 0.0
21 22:15 Calm 10.00 Fair CLR 78.8 75.2 89% 82 29.99 0.0
21 21:55 SE 5 10.00 Fair CLR 78.8 75.2 89% 82 29.97 0.0
21 21:35 Calm 10.00 Fair CLR 78.4 75.4 90% 82 29.97 0.0
21 21:15 Calm 10.00 Fair CLR 79.2 75.4 88% 83 29.97 0.0
21 20:55 Calm 10.00 Fair CLR 79.5 75.4 87% 84 29.97 0.0
21 20:35 Calm 10.00 Fair CLR 79.3 75.7 89% 84 29.96 0.0
21 20:15 Calm 10.00 Fair CLR 79.9 75.4 86% 85 29.97 0.0
21 19:55 S 5 10.00 Fair CLR 80.6 74.8 83% 86 29.96 0.0
21 19:35 S 3 10.00 Partly Cloudy SCT020 SCT026 81.5 75.2 81% 88 29.97 0.0
21 19:15 S 5 10.00 Mostly Cloudy SCT020 BKN028 82.4 75.2 79% 89 29.98 0.0
21 18:55 S 5 10.00 Fair CLR 84 74.3 88.7 76.1 73% 91 29.97 0.0
21 18:35 S 7 10.00 Partly Cloudy SCT020 SCT024 83.3 74.3 74% 90 29.98 0.0
21 18:15 S 8 10.00 Partly Cloudy SCT020 SCT024 84.6 74.7 72% 93 29.98 0.0
21 17:55 S 8 10.00 Partly Cloudy SCT018 84.4 74.3 72% 92 29.99 0.0
21 17:35 S 9 10.00 Fair CLR 85.1 75.6 73% 94 29.99 0.0
21 17:15 S 10 10.00 Fair CLR 84.4 75 74% 93 29.99 0.0
21 16:55 S 10 10.00 Fair CLR 83.5 74.1 74% 90 29.99 0.0
21 16:35 S 9 10.00 Fair CLR 83.3 74.3 74% 90 29.98 0.0
21 15:55 SE 7 10.00 Fair CLR 82.4 73.6 75% 88 29.98 0.0
21 15:35 SE 7 10.00 Fair CLR 81.3 73.8 78% 87 29.97 0.0
21 15:15 E 6 10.00 Fair CLR 78.8 73.4 84% 82 29.97 0.0
21 14:55 SE 5 10.00 Fair CLR 77.2 73.4 88% 79 29.98 0.0
21 14:35 SE 8 10.00 Mostly Cloudy SCT055 BKN110 76.8 73.6 90% 78 30 0.0
21 14:15 SE 8 10.00 Light Drizzle SCT014 BKN055 OVC110 76.1 73.4 91% 76 30.02 0.0
21 13:55 SE 20 G 23 7.00 Rain SCT014 BKN036 OVC042 77.2 72.5 86% 79 30.02 0.0
21 13:35 SE 13 10.00 Overcast BKN028 OVC037 79.2 71.8 78% 82 30.02 0.0
21 13:15 SE 13 G 18 10.00 Mostly Cloudy SCT025 SCT034 BKN060 83.3 71.4 68% 88 30.01 0.0
21 12:55 N 3 10.00 Mostly Cloudy SCT038 SCT055 BKN065 88.3 72.3 90.3 74.8 59% 95 30 0.0
21 12:35 N 3 10.00 Partly Cloudy SCT038 SCT044 90.1 70.9 53% 96 30 0.0
21 12:15 N 5 10.00 Partly Cloudy SCT036 SCT042 SCT075 89.6 72.5 57% 97 30 0.0
21 11:55 Calm 10.00 Fair CLR 89.2 71.1 55% 95 30.01 0.0
21 11:35 Calm 10.00 Partly Cloudy SCT028 SCT050 SCT060 88.7 74.1 62% 98 30.01 0.0
21 11:15 N 6 10.00 Partly Cloudy SCT026 SCT034 88.2 74.3 64% 97 30.01 0.0
21 10:55 Calm 10.00 Partly Cloudy SCT026 87.1 73.6 64% 95 30.01 0.0
21 10:35 NW 7 10.00 Partly Cloudy BKN023 SCT034 SCT046 85.8 75.2 71% 95 30.01 0.0
21 10:15 NW 6 10.00 Partly Cloudy SCT019 SCT031 SCT050 85.5 74.7 70% 94 30.01 0.0
21 09:35 N 3 10.00 Partly Cloudy SCT015 84.9 75.7 74% 94 30.01 0.0
21 09:15 NW 5 10.00 Thunderstorm in Vicinity CLR 84.6 76.3 76% 94 30.01 0.0
21 08:55 NW 6 10.00 Thunderstorm in Vicinity SCT020 83.7 76.6 79% 93 30.02 0.0
21 08:35 N 6 10.00 Partly Cloudy SCT020 82.4 76.3 82% 90 30.03 0.0
21 08:15 N 5 10.00 Fair CLR 81.1 76.5 86% 88 30.02 0.0
21 07:55 Calm 10.00 Partly Cloudy SCT100 80.2 76.1 87% 86 30.02 0.0
21 07:35 Calm 7.00 Partly Cloudy SCT100 77.7 76.5 96% 80 30.02 0.0
21 07:15 Calm 7.00 Fair CLR 75.7 74.8 97% 75 30.01 0.0
21 06:55 Calm 5.00 Fog/Mist CLR 74.8 73.8 77.9 74.3 96% 30 0.0
21 06:35 Calm 5.00 Fog/Mist CLR 74.5 73.4 96% 30 0.0
21 06:15 Calm 7.00 Fair CLR 74.7 73.6 96% 30 0.0
21 05:55 Calm 5.00 Fog/Mist CLR 74.5 73.6 97% 29.99 0.0
21 05:35 Calm 4.00 Fog/Mist CLR 74.5 73.4 96% 29.99 0.0
21 05:15 Calm 5.00 Fog/Mist CLR 74.8 73.8 96% 29.99 0.0
21 04:55 NW 5 5.00 Fog/Mist CLR 74.7 73 95% 30 0.0
21 04:35 Calm 10.00 Fair CLR 76.1 73.9 93% 76 29.99 0.0
21 04:15 Calm 10.00 Partly Cloudy SCT080 76.1 73.9 93% 76 30 0.0
21 03:55 Calm 10.00 Partly Cloudy SCT080 76.1 73.6 92% 76 30 0.0
21 03:35 Calm 10.00 Partly Cloudy SCT024 76.1 73.6 92% 76 30 0.0
21 03:15 Calm 10.00 Fair CLR 76.1 73.8 93% 76 30 0.0
21 02:55 NE 3 10.00 Fair CLR 76.5 74.3 93% 77 30 0.0
21 02:35 Calm 10.00 Fair CLR 77 74.3 91% 78 30 0.0
21 02:15 Calm 10.00 Fair CLR 76.6 74.3 93% 77 30 0.0
21 01:55 Calm 10.00 Fair CLR 77.5 74.3 90% 79 30.01 0.0
21 01:35 Calm 10.00 Fair CLR 77 74.3 91% 78 30.01 0.0
21 01:15 Calm 10.00 Partly Cloudy SCT032 77.5 74.3 90% 79 30.02 0.0
21 00:55 Calm 10.00 Fair CLR 77.2 73.9 87.8 76.6 90% 79 30.01 0.0
21 00:35 Calm 10.00 Thunderstorm in Vicinity CLR 77 73.8 90% 78 30.01 0.0
21 00:15 Calm 10.00 Fair CLR 77.2 74.1 90% 79 30.02 0.0
20 23:55 Calm 10.00 Partly Cloudy SCT037 SCT049 77.9 73.4 86% 80 30.02 0.0
20 23:35 Calm 10.00 Thunderstorm in Vicinity SCT037 BKN049 79.2 73 82% 83 30.02 0.0
20 23:15 Calm 10.00 Fair CLR 79 72.7 81% 82 30.03 0.0
20 22:55 Calm 10.00 Fair CLR 79.5 72.1 78% 83 30.02 0.0
20 22:35 Calm 10.00 Partly Cloudy SCT037 79.9 71.4 75% 83 30.02 0.0
20 22:15 SE 5 10.00 Mostly Cloudy BKN037 80.6 71.6 74% 85 30.01 0.0
20 21:55 E 3 10.00 Partly Cloudy SCT035 79 72.7 81% 82 30.01 0.0
20 21:35 Calm 10.00 Fair CLR 79.2 72.7 81% 83 30 0.0
20 21:15 S 5 10.00 Fair CLR 78.8 72.1 80% 82 29.99 0.0
20 20:55 Calm 10.00 Fair CLR 80.4 71.8 75% 84 29.99 0.0
20 20:35 Calm 10.00 Fair CLR 82.4 69.6 65% 86 29.98 0.0
20 20:15 Calm 10.00 Fair CLR 82.9 69.4 64% 87 29.97 0.0
20 19:55 E 5 10.00 Partly Cloudy SCT040 84.6 70.3 62% 89 29.97 0.0
20 19:35 E 7 10.00 Mostly Cloudy BKN040 85.5 71.4 63% 91 29.97 0.0
20 19:15 N 3 10.00 Fair CLR 86.9 72.3 62% 94 29.97 0.0
20 18:55 N 5 10.00 Fair CLR 88 71.6 90.3 86.5 58% 94 29.97 0.0
20 18:35 NW 5 10.00 Fair CLR 89.1 71.8 57% 96 29.97 0.0
20 18:15 N 5 10.00 Fair CLR 89.2 71.1 55% 95 29.98 0.0
20 17:55 N 5 10.00 Fair CLR 89.4 70.3 53% 95 29.99 0.0
20 17:35 Calm 10.00 Fair CLR 89.6 69.3 51% 94 29.98 0.0
20 17:15 N 3 10.00 Fair CLR 90 68.9 50% 95 29.98 0.0
20 16:55 Calm 10.00 Fair CLR 89.1 69.8 53% 94 29.99 0.0
20 16:35 Calm 10.00 Fair CLR 89.6 70.7 54% 96 30 0.0
20 16:15 Calm 10.00 Fair CLR 89.6 71.2 55% 96 30 0.0
Date Time (cdt) Wind (mph) Vis. (mi.) Weather Sky Cond. Air Dwpt Max. Min. Relative Humidity Wind Chill (°F) Heat Index (°F) altimeter (in) sea level (mb) 1 hr 3 hr 6 hr
6 hour
Temperature (ºF) Pressure Precipitation (in)